Capitol Logistics 413


KTUL
Tulsa International Airport
Tulsa, Oklahoma, US
KMIA
Miami International Airport
Miami, Florida, US

Route Details

Aircraft Information
Primary: Boeing 757-200SF
Backup: Boeing 737-800BCF
Route Data
Distance: 1016nm
Sched. Duration: 2h 14m
Avg. Duration: 2h 70m (+56m)
Times Flown: 5
Recm'd Route: MAYJI FSM LIT SQS MEI ACORI BULZI NICKI Q81 ENDEW JUULI SSCOT5
Planned Altitude: 37,000ft
Origin Wx: KTUL 262053Z 35009KT 10SM OVC018 02/M02 A3002 RMK AO2 SLP171 T00221017 56014
Dest. Wx: KMIA 262053Z COR 14009KT 10SM FEW030 BKN250 27/19 A3001 RMK AO2 SLP162 T02670194 55012
Notes:

Financial History
Total Freight: 262,064lbs
Average Load: 52,413lbs/flt
Fuel Used: 91,809lbs
Avg. Fuel Used: 18,362lbs/flt
Fuel Expense: $43,150
Avg. Fuel Expense: $8,630
Avg. Fuel Cost: $0.47/lbs
Total Gross Income: $354,835
Pilot Pay: $915
Total Expenses: $38,582
Total Revenue: $270,076
Average Revenue: $70,967.07